Hoquiam, WA
on Sunday, January 27, 2013

Sunday
Previous Day Next Day
Daily Summary
 ActualAverageRecord
Temperature
Mean Temperature °F 43°F  
Max Temperature 43°F 48°F 56°F (1961)
Min Temperature 37°F 38°F 16°F (1957)
Degree Days
Heating Degree Days 25 22  
Month to date heating degree days 605  
Cooling Degree Days 0 0  
Month to date cooling degree days 0  
Year to date cooling degree days 0  
Moisture
Dew Point 40°F   
Average Humidity 92    
Maximum Humidity 100    
Minimum Humidity 87    
Precipitation
Precipitation 0.39 in 0.29 in 1.45 in (1992)
Month to date precipitation 9.14  
Year to date precipitation 9.14  
Wind
Wind Speed 4 mph   
Max Wind Speed 12 mph   
Max Gust Speed mph   
Visibility 8 miles   
Events Rain   

Key: T is trace of precipitation, MM is missing value
Source: NWS Daily Summary
Time(PST)TemperatureDew PointHumidity Pressure Visibility Wind DirectionWind SpeedGust SpeedPrecipitationEvents Conditions
12:02 AM 41.0°F 39.2°F 93% 30.05 in 9.0 miles Calm Calm - 0.00 in Rain Light Rain
12:06 AM 41.0°F 39.2°F 93% 30.05 in 8.0 miles Calm Calm - 0.01 in Rain Light Rain
12:37 AM 41.0°F 39.2°F 93% 30.05 in 10.0 miles SW 5.8 mph - 0.04 in   Overcast
12:53 AM 41.0°F 39.0°F 93% 30.06 in 10.0 miles WSW 4.6 mph - 0.04 in   Overcast
1:53 AM 42.1°F 39.0°F 89% 30.07 in 10.0 miles West 5.8 mph - 0.01 in   Overcast
2:51 AM 42.8°F 39.2°F 87% 30.06 in 6.0 miles West 9.2 mph - 0.00 in Rain Light Rain
2:53 AM 42.1°F 39.9°F 92% 30.07 in 6.0 miles West 11.5 mph - 0.00 in Rain Light Rain
3:53 AM 41.0°F 39.0°F 93% 30.07 in 10.0 miles SW 3.5 mph - 0.01 in   Mostly Cloudy
4:53 AM 39.0°F 37.0°F 93% 30.07 in 10.0 miles Calm Calm - N/A   Partly Cloudy
5:53 AM 37.9°F 37.0°F 97% 30.07 in 6.0 miles Calm Calm - N/A   Overcast
6:53 AM 39.0°F 37.9°F 96% 30.07 in 10.0 miles ENE 3.5 mph - 0.00 in   Overcast
7:31 AM 39.2°F 37.4°F 93% 30.06 in 10.0 miles NNW 4.6 mph - 0.01 in   Overcast
7:53 AM 39.0°F 39.0°F 100% 30.07 in 10.0 miles Calm Calm - 0.01 in Rain Light Rain
8:53 AM 41.0°F 39.9°F 96% 30.08 in 8.0 miles Calm Calm - 0.03 in Rain Light Rain
9:15 AM 41.0°F 39.2°F 93% 30.07 in 10.0 miles Calm Calm - 0.00 in   Overcast
9:32 AM 41.0°F 39.2°F 93% 30.07 in 2.5 miles Calm Calm - 0.03 in Rain Light Rain
9:39 AM 42.8°F 39.2°F 87% 30.07 in 4.0 miles South 4.6 mph - 0.03 in Rain Light Rain
9:50 AM 42.8°F 39.2°F 87% 30.07 in 8.0 miles South 9.2 mph - 0.03 in Rain Light Rain
9:53 AM 42.1°F 39.9°F 92% 30.09 in 10.0 miles South 9.2 mph - 0.03 in Rain Light Rain
10:53 AM 42.1°F 39.9°F 92% 30.09 in 10.0 miles SSE 9.2 mph - 0.01 in   Overcast
11:36 AM 42.8°F 39.2°F 87% 30.07 in 6.0 miles WNW 3.5 mph - 0.03 in Rain Light Rain
11:45 AM 42.8°F 39.2°F 87% 30.06 in 4.0 miles Calm Calm - 0.04 in Rain Light Rain
11:53 AM 42.1°F 39.0°F 89% 30.07 in 9.0 miles Calm Calm - 0.05 in Rain Light Rain
12:27 PM 42.8°F 41.0°F 93% 30.04 in 10.0 miles South 5.8 mph - 0.00 in   Overcast
12:53 PM 43.0°F 39.9°F 89% 30.05 in 7.0 miles West 11.5 mph - 0.01 in Rain Light Rain
1:06 PM 42.8°F 39.2°F 87% 30.03 in 8.0 miles West 9.2 mph - 0.01 in Rain Light Rain
1:30 PM 42.8°F 39.2°F 87% 30.02 in 5.0 miles WSW 6.9 mph - 0.03 in Rain Light Rain
1:51 PM 42.8°F 41.0°F 93% 30.02 in 10.0 miles WSW 5.8 mph - 0.03 in Rain Light Rain
1:53 PM 43.0°F 41.0°F 93% 30.03 in 10.0 miles WSW 4.6 mph - 0.03 in   Overcast
2:12 PM 42.8°F 41.0°F 93% 30.02 in 5.0 miles SW 8.1 mph - 0.01 in Rain Light Rain
2:53 PM 43.0°F 39.9°F 89% 30.03 in 7.0 miles WSW 3.5 mph - 0.04 in Rain Light Rain
3:53 PM 43.0°F 41.0°F 93% 30.03 in 7.0 miles SW 8.1 mph - 0.04 in Rain Light Rain
4:53 PM 43.0°F 41.0°F 93% 30.02 in 7.0 miles SW 5.8 mph - 0.03 in Rain Light Rain
5:10 PM 42.8°F 41.0°F 93% 30.00 in 9.0 miles SW 4.6 mph - 0.00 in Rain Light Rain
5:29 PM 42.8°F 41.0°F 93% 30.00 in 10.0 miles South 6.9 mph - 0.01 in Rain Light Rain
5:53 PM 43.0°F 42.1°F 97% 30.01 in 7.0 miles South 4.6 mph - 0.02 in Rain Light Rain
6:01 PM 42.8°F 42.8°F 100% 30.00 in 6.0 miles SW 3.5 mph - 0.00 in Rain Light Rain
6:11 PM 42.8°F 42.8°F 100% 30.01 in 7.0 miles WSW 3.5 mph - 0.01 in Rain Light Rain
6:26 PM 42.8°F 42.8°F 100% 30.00 in 8.0 miles Calm Calm - 0.01 in   Overcast
6:36 PM 42.8°F 41.0°F 93% 30.00 in 10.0 miles Calm Calm - 0.01 in   Overcast
6:53 PM 42.1°F 41.0°F 96% 30.02 in 10.0 miles WSW 3.5 mph - 0.01 in Rain Light Rain
7:17 PM 42.8°F 39.2°F 87% 30.01 in 7.0 miles WSW 4.6 mph - 0.02 in Rain Light Rain
7:51 PM 42.8°F 41.0°F 93% 30.01 in 6.0 miles West 5.8 mph - 0.02 in   Overcast
7:53 PM 42.1°F 41.0°F 96% 30.03 in 7.0 miles West 4.6 mph - 0.02 in   Overcast
8:11 PM 42.8°F 39.2°F 87% 30.02 in 10.0 miles West 6.9 mph - N/A   Scattered Clouds
8:46 PM 42.8°F 39.2°F 87% 30.03 in 10.0 miles WSW 5.8 mph - N/A   Mostly Cloudy
8:53 PM 42.1°F 39.9°F 92% 30.04 in 10.0 miles WSW 5.8 mph - N/A   Mostly Cloudy
9:15 PM 42.8°F 39.2°F 87% 30.03 in 10.0 miles West 4.6 mph - N/A   Scattered Clouds
9:53 PM 42.1°F 39.0°F 89% 30.05 in 10.0 miles West 5.8 mph - N/A   Partly Cloudy
10:53 PM 39.9°F 39.0°F 97% 30.05 in 10.0 miles WSW 4.6 mph - N/A   Partly Cloudy
11:53 PM 42.1°F 39.0°F 89% 30.07 in 10.0 miles WNW 5.8 mph - N/A   Mostly Cloudy
Moon Phase
Jan. 27 Feb. 03 Feb. 10 Feb. 17 Feb. 25
Sunrise:07:46 AM (PST) Moon Rise:06:18 PM (PST)1/27
Sunset:05:11 PM (PST) Moon Set:07:36 AM (PST)1/27

Copyright © 2014 The Weather Underground, Inc.